Wind_Speed
14 14 14 14 14 14 14 14 13 13 13 13 12 12 13 14 13 13 13 13 12 12 12 13 13 12 13 13 12 13 14 14 14 15 16 16 16 17
15 15 15 15 15 14 14 14 14 14 13 13 13 13 12 12 13 13 13 12 13 13 13 13 14 14 14 14 13 14 14 15 15 15 16 16 17 17
15 15 15 15 15 14 14 14 14 14 14 13 13 13 13 13 13 13 12 13 14 14 14 14 14 15 14 14 14 14 14 15 15 16 16 17 17 18
16 15 15 15 15 15 15 15 15 15 14 14 14 13 13 13 14 14 14 14 14 14 14 14 15 15 16 15 15 15 15 16 16 16 17 17 18 18
17 17 16 16 16 16 16 16 16 16 15 15 15 14 14 14 14 14 14 14 15 15 15 15 16 16 16 16 17 17 17 17 17 18 19 19 19 20
19 18 18 18 17 17 17 17 17 16 16 16 16 16 16 15 15 15 15 15 15 16 16 16 16 16 17 17 18 18 19 19 19 19 20 20 20 21
20 20 20 20 19 19 18 18 17 17 17 18 18 17 17 16 16 16 15 15 15 16 16 16 16 17 17 17 18 18 19 19 20 21 21 22 22 23
21 22 22 21 21 20 20 19 18 18 18 18 18 18 17 17 17 16 16 16 16 16 17 16 16 17 17 18 18 19 19 20 21 22 23 23 24 24
22 23 23 23 23 22 22 21 20 20 20 19 18 18 18 17 17 17 17 17 17 17 17 17 17 18 18 19 19 20 20 21 22 23 24 24 25 25
23 23 24 23 23 24 24 23 22 21 21 20 19 19 19 18 18 18 17 17 17 18 18 18 18 18 19 19 20 20 21 21 22 23 24 25 25 25
23 24 25 25 24 24 24 24 23 23 23 22 21 20 20 20 19 19 19 19 19 19 19 19 19 20 20 21 21 21 22 22 22 23 24 24 24 24
23 24 25 25 25 25 25 25 24 24 24 24 23 22 22 21 21 21 20 20 20 20 21 20 21 21 21 21 22 22 23 23 24 24 24 24 24 24
24 24 25 26 26 26 26 26 26 26 25 25 25 24 23 23 22 22 22 21 21 21 21 21 21 22 22 22 23 23 24 25 25 24 24 24 23 23
25 25 25 26 27 27 27 27 27 27 27 26 25 25 25 24 24 24 23 23 23 23 22 22 22 22 23 23 23 24 24 25 25 24 24 24 23 24
27 26 27 26 26 27 28 28 28 28 28 27 26 26 26 26 26 26 25 25 24 24 24 23 23 23 23 23 24 24 25 25 25 24 24 24 24 24
29 28 28 28 28 27 27 28 28 28 28 29 29 28 28 28 28 27 27 27 26 25 25 25 25 25 25 24 25 25 25 25 25 25 25 25 25 25
29 29 29 29 29 29 29 28 29 29 28 28 29 29 30 29 29 29 28 28 27 27 26 26 26 26 26 25 25 25 26 26 26 26 25 25 25 26
30 30 29 29 30 30 30 30 30 30 30 30 30 30 30 30 29 29 29 28 28 28 27 27 27 27 26 25 25 25 25 26 25 25 25 25 26 26
31 30 30 30 30 31 31 31 31 30 30 30 30 30 30 30 30 29 29 28 28 28 28 28 28 28 27 27 26 25 25 25 25 24 25 25 25 25
30 30 30 30 30 30 30 30 30 31 31 31 30 30 30 31 30 29 29 28 28 29 29 29 29 29 28 27 27 26 26 26 25 25 25 25 25 25
31 31 30 30 29 29 29 30 30 31 31 31 31 31 31 30 30 29 30 30 30 30 29 29 29 29 28 28 28 27 27 26 26 26 26 26 26 26
31 31 30 30 30 29 30 30 30 31 31 31 31 31 31 31 30 30 30 30 31 31 30 30 29 29 29 29 29 29 29 29 28 28 28 28 27 26
32 32 32 32 32 32 31 31 31 31 32 32 32 30 30 30 31 31 31 31 31 30 30 30 30 30 30 31 31 30 30 29 29 29 28 29 28 28
Wind_Direction
251 250 252 254 256 259 263 266 268 268 269 272 275 279 276 278 277 277 276 273 273 273 272 272 269 271 273 274 277 278 279 278 279 280 283 285 284 282
250 251 253 255 258 260 260 263 265 266 267 272 275 279 284 279 278 276 274 273 274 275 272 271 268 270 271 274 275 277 279 279 281 284 286 285 284 284
251 253 255 257 258 260 261 264 267 266 267 271 275 278 281 281 279 276 276 275 274 274 274 273 269 269 272 275 276 278 280 282 283 285 286 286 287 286
253 255 256 256 257 260 262 264 266 266 266 268 272 276 278 280 282 279 278 278 277 277 277 276 273 272 273 275 277 278 280 282 283 284 287 287 288 287
252 254 255 255 256 259 261 263 266 266 266 267 269 272 275 278 281 280 281 281 279 280 280 279 276 275 275 275 275 277 279 281 282 284 287 287 287 286
252 254 255 254 254 258 261 263 266 265 265 266 268 271 273 276 278 280 280 281 280 280 280 279 278 277 277 276 276 278 282 283 284 285 287 289 289 289
251 253 254 254 255 257 260 262 263 263 264 265 267 271 271 274 278 282 282 281 282 283 282 281 279 277 277 276 277 279 282 283 284 285 286 288 289 288
252 253 254 255 256 259 258 259 260 262 264 265 267 269 270 273 277 280 282 282 282 282 280 279 279 278 278 278 280 281 282 284 285 285 286 288 288 288
253 254 255 256 256 257 257 258 259 261 263 265 268 270 271 272 275 277 280 283 284 284 281 279 279 280 280 281 282 283 284 285 286 288 289 290 289 287
253 253 254 255 256 256 256 258 259 261 263 265 267 269 271 272 273 276 279 282 282 284 282 280 279 280 282 282 283 285 285 286 287 289 289 290 289 286
255 254 255 257 259 257 256 257 259 261 262 262 264 266 268 269 271 274 278 280 282 283 285 282 280 280 280 281 282 284 285 287 290 291 291 291 290 287
256 256 257 258 258 257 257 258 259 260 262 262 263 264 266 268 270 273 276 279 280 281 283 282 281 281 280 280 281 283 284 286 289 291 292 292 290 288
257 257 257 257 257 257 257 257 258 259 261 263 263 264 264 265 268 271 274 275 278 281 281 281 281 281 280 280 281 283 285 286 288 290 291 291 291 291
258 259 259 259 257 256 257 257 258 259 261 262 264 265 265 267 268 270 272 274 277 279 279 279 280 281 280 281 281 284 287 288 288 288 290 291 291 291
258 260 261 260 259 257 256 258 259 260 261 261 262 264 266 268 270 270 270 272 275 276 277 276 279 281 281 282 283 285 287 288 288 289 291 291 290 290
258 261 262 261 259 258 257 257 258 260 262 261 261 262 266 268 270 270 270 271 273 274 275 276 278 280 281 281 283 285 287 288 289 289 290 290 288 289
260 261 263 262 260 259 258 258 259 260 261 262 262 263 265 267 269 269 269 269 271 273 273 274 276 279 279 280 283 285 286 288 289 289 289 290 290 289
261 262 263 262 261 260 259 259 260 260 261 262 263 265 266 267 267 267 267 268 271 272 273 273 275 277 278 279 281 283 284 285 286 287 288 291 292 291
260 261 262 262 261 260 259 259 259 261 262 264 265 266 266 267 266 266 268 269 271 272 271 271 273 274 275 277 281 283 285 286 288 289 291 292 292 290
260 261 261 260 259 258 259 258 259 260 262 264 266 268 269 268 267 267 269 270 271 272 272 272 272 274 274 276 278 279 281 285 287 289 291 291 290 289
260 260 260 260 259 259 260 260 259 259 260 263 265 266 268 268 267 267 269 269 269 271 272 273 272 271 272 273 275 276 279 282 284 286 288 289 290 290
257 258 258 259 259 261 262 262 262 261 260 262 265 267 267 266 265 266 268 269 269 269 270 271 271 272 271 271 273 276 277 279 281 283 285 287 289 290
257 257 258 259 259 260 261 262 263 263 262 262 264 266 266 266 266 267 269 269 268 268 270 271 271 271 272 272 273 275 277 278 280 283 285 286 287 288
Height
5840 5841 5842 5843 5844 5844 5845 5845 5846 5845 5846 5845 5845 5845 5844 5843 5842 5842 5841 5841 5840 5840 5840 5840 5840 5840 5840 5839 5839 5838 5838 5837 5837 5836 5836 5834 5833 5832
5837 5838 5838 5839 5840 5841 5841 5842 5842 5842 5842 5842 5842 5841 5840 5840 5839 5838 5838 5837 5837 5836 5836 5836 5836 5836 5836 5836 5835 5835 5834 5834 5833 5832 5831 5830 5829 5828
5833 5834 5834 5835 5836 5837 5837 5838 5838 5838 5839 5839 5838 5838 5837 5836 5836 5835 5834 5834 5833 5833 5833 5833 5833 5832 5832 5832 5831 5831 5830 5830 5829 5828 5827 5826 5825 5824
5829 5830 5831 5831 5832 5833 5833 5834 5834 5835 5835 5835 5835 5834 5834 5833 5833 5832 5831 5830 5830 5830 5829 5829 5829 5828 5828 5828 5827 5827 5826 5826 5825 5824 5823 5822 5820 5819
5825 5826 5826 5827 5828 5828 5829 5830 5830 5830 5831 5831 5831 5831 5830 5829 5829 5828 5827 5827 5826 5826 5825 5825 5824 5824 5824 5823 5823 5822 5822 5821 5820 5819 5818 5817 5815 5814
5820 5821 5822 5823 5824 5824 5825 5825 5826 5826 5826 5826 5827 5827 5826 5826 5825 5824 5824 5823 5822 5821 5821 5820 5820 5819 5819 5819 5818 5818 5817 5816 5816 5815 5813 5811 5810 5808
5815 5816 5817 5818 5819 5820 5820 5821 5821 5821 5822 5822 5822 5822 5822 5822 5821 5820 5819 5819 5818 5817 5817 5816 5815 5815 5814 5814 5813 5813 5812 5811 5810 5809 5807 5806 5804 5802
5809 5810 5811 5812 5813 5814 5815 5816 5816 5817 5817 5817 5817 5817 5817 5817 5817 5816 5815 5815 5814 5814 5812 5812 5811 5810 5809 5809 5808 5807 5806 5805 5804 5803 5801 5800 5798 5796
5803 5804 5805 5807 5808 5809 5810 5810 5811 5812 5812 5812 5812 5812 5813 5812 5812 5811 5811 5810 5809 5809 5808 5807 5806 5805 5804 5803 5803 5802 5801 5799 5798 5797 5795 5793 5791 5789
5797 5798 5799 5800 5801 5803 5804 5805 5806 5806 5807 5807 5808 5808 5807 5807 5807 5807 5806 5805 5805 5804 5803 5802 5801 5800 5799 5798 5797 5796 5795 5793 5792 5790 5788 5786 5783 5781
5790 5791 5793 5794 5795 5796 5797 5798 5799 5800 5801 5801 5802 5802 5802 5802 5801 5801 5800 5800 5799 5799 5798 5797 5795 5794 5793 5792 5791 5790 5789 5787 5785 5783 5781 5779 5776 5774
5784 5785 5786 5787 5788 5789 5790 5792 5793 5794 5794 5795 5795 5796 5796 5796 5795 5795 5795 5794 5794 5793 5792 5791 5790 5788 5788 5786 5785 5783 5782 5781 5779 5777 5775 5772 5770 5767
5776 5777 5779 5780 5781 5782 5783 5784 5786 5786 5787 5788 5788 5789 5789 5789 5789 5789 5789 5788 5788 5787 5786 5785 5784 5782 5781 5780 5779 5777 5775 5774 5772 5770 5768 5766 5763 5761
5769 5770 5771 5772 5773 5774 5775 5777 5778 5779 5779 5780 5781 5782 5782 5782 5782 5782 5782 5782 5781 5780 5779 5778 5777 5776 5775 5773 5772 5771 5769 5767 5765 5763 5761 5759 5756 5754
5761 5762 5763 5764 5765 5766 5767 5768 5769 5771 5772 5772 5773 5774 5775 5775 5775 5775 5775 5775 5774 5773 5772 5771 5770 5769 5768 5766 5765 5763 5761 5760 5758 5756 5754 5752 5750 5747
5753 5754 5755 5756 5757 5758 5758 5760 5761 5763 5763 5764 5765 5766 5766 5767 5767 5767 5767 5767 5766 5766 5765 5764 5762 5761 5760 5759 5758 5756 5754 5752 5751 5748 5747 5744 5742 5740
5744 5745 5746 5747 5748 5749 5750 5751 5753 5754 5755 5755 5756 5757 5757 5758 5758 5758 5758 5758 5758 5758 5757 5756 5755 5754 5753 5752 5750 5749 5747 5745 5743 5741 5739 5737 5735 5733
5735 5736 5737 5738 5739 5740 5741 5743 5744 5745 5746 5747 5747 5748 5748 5748 5749 5749 5749 5749 5749 5749 5748 5748 5747 5746 5745 5744 5743 5742 5740 5738 5736 5733 5731 5729 5727 5725
5726 5727 5728 5729 5730 5731 5732 5733 5735 5736 5737 5738 5738 5738 5739 5739 5740 5740 5740 5740 5740 5740 5739 5739 5738 5737 5737 5736 5735 5734 5732 5730 5728 5726 5724 5722 5720 5718
5717 5718 5719 5720 5720 5721 5723 5724 5725 5726 5727 5728 5729 5729 5730 5730 5730 5731 5731 5731 5731 5731 5730 5730 5729 5728 5728 5728 5727 5726 5724 5722 5721 5719 5717 5715 5712 5710
5708 5709 5710 5711 5712 5713 5714 5715 5716 5717 5718 5719 5720 5720 5720 5721 5721 5722 5722 5722 5722 5721 5721 5721 5720 5720 5719 5718 5718 5717 5716 5714 5713 5711 5709 5707 5705 5703
5699 5700 5701 5702 5703 5704 5705 5706 5706 5707 5708 5709 5710 5710 5711 5711 5711 5712 5712 5712 5712 5712 5711 5711 5711 5710 5709 5709 5709 5708 5707 5706 5705 5703 5701 5700 5697 5695
5689 5690 5692 5692 5693 5694 5695 5696 5697 5698 5698 5699 5700 5700 5700 5701 5702 5702 5702 5702 5702 5702 5702 5701 5701 5701 5700 5700 5699 5699 5698 5697 5696 5694 5693 5691 5689 5687